Weather in Chelbasskaya

Russia / Krasnodar Krai     45°58′36″N   39°21′38″E
temp.,
°C
wind,
m/s
gust,
m/s
humid.,
%
clouds,
%
prec.,
mm/h
press.,
hPa
HPBL,
m
26 january, tue
tue2600:00+3se5973100 0.0 1013145
03:00+6s61973100 0.0 1013386
06:00+5s71798100 0.6 1015431
09:00+5ssw4129494 0.6 1017268
12:00+7ssw31198100 0.0 1017329
15:00+9s3387100 0.0 101687
18:00+6se51088100 0.0 1016211
21:00+7se71871100 0.0 1016408
27 january, wed
wed2700:00+6se61672100 0.0 1015312
03:00+5se51079100 0.0 1013178
06:00+5se4874100 0.0 1012142
09:00+6se4871100 0.0 1012136
12:00+9ese4665100 0.0 1010149
15:00+8ese61069100 0.0 1008291
18:00+5ese51078100 0.0 1007270
21:00+5ese6981100 0.0 1006200
28 january, thu
thu2800:00+4ese6983100 0.0 1005195
03:00+3ese378599 0.0 1004147
06:00+3ese478691 0.0 1004131
09:00+4se477895 0.0 1006108
12:00+9s4865100 0.0 1006342
15:00+8s4796100 3.5 1007313
18:00+6wnw3894100 2.3 1008349
21:00+4wsw31079100 2.3 1009409
29 january, fri
fri2900:00+3sw3881100 0.0 1010261
03:00+2ssw388682 0.0 1011172
06:00+2ssw5138419 0.0 1010424
09:00+3ssw6157710 0.0 1010687
12:00+6sw81762100 0.1 10092028
15:00+6wsw91662100 0.2 10091853
18:00+5sw61371100 0.2 1009886
21:00+4ssw61574100 0.2 1009887
30 january, sat
sat3000:00+4ssw81674100 0.0 10081113
03:00+5ssw81870100 0.0 10061274
06:00+6ssw101874100 0.0 10061018
09:00+6ssw8177498 0.0 10071171
12:00+8ssw91565100 0.0 10061314
15:00+10ssw61260100 0.0 10051383
18:00+8sse41065100 0.0 1004295
21:00+6se41064100 0.0 1003267